| time (UTC) | temp C | wind direction | speed KPH | gust KPH | rain 1hr cm | rain 24hr cm | rain mn cm | humidity % | barometer mb |
| 20260509232459 | 16 | 328 | 8.0 | 20.9 | 0.00 | 0.00 | 0.00 | 43 | 1003.7 |
| 20260509231959 | 16 | 255 | 4.8 | 24.1 | 0.00 | 0.00 | 0.00 | 43 | 1003.7 |
| 20260509231459 | 16 | 7 | 9.7 | 24.1 | 0.00 | 0.00 | 0.00 | 42 | 1003.6 |
| 20260509230959 | 16 | 316 | 9.7 | 22.5 | 0.00 | 0.00 | 0.00 | 41 | 1003.7 |
| 20260509230459 | 17 | 271 | 6.4 | 19.3 | 0.00 | 0.00 | 0.00 | 41 | 1003.5 |
| 20260509230001 | 17 | 291 | 9.7 | 29.0 | 0.00 | 0.00 | 0.00 | 40 | 1003.5 |
| 20260509225459 | 17 | 1 | 12.9 | 29.0 | 0.00 | 0.00 | 0.00 | 38 | 1003.3 |
| 20260509224958 | 17 | 297 | 6.4 | 22.5 | 0.00 | 0.00 | 0.00 | 39 | 1003.1 |
| 20260509224459 | 17 | 312 | 8.0 | 24.1 | 0.00 | 0.00 | 0.00 | 38 | 1003.0 |
| 20260509223958 | 17 | 236 | 6.4 | 24.1 | 0.00 | 0.00 | 0.00 | 39 | 1003.0 |
| 20260509223459 | 17 | 295 | 9.7 | 25.7 | 0.00 | 0.00 | 0.00 | 39 | 1002.9 |
| 20260509222959 | 18 | 266 | 12.9 | 25.7 | 0.00 | 0.00 | 0.00 | 37 | 1002.7 |
| 20260509222458 | 18 | 291 | 8.0 | 22.5 | 0.00 | 0.00 | 0.00 | 40 | 1002.5 |
| 20260509221958 | 18 | 259 | 4.8 | 22.5 | 0.00 | 0.00 | 0.00 | 39 | 1002.5 |
| 20260509221458 | 18 | 285 | 6.4 | 20.9 | 0.00 | 0.00 | 0.00 | 41 | 1002.3 |
| 20260509220958 | 18 | 303 | 9.7 | 20.9 | 0.00 | 0.00 | 0.00 | 40 | 1002.2 |
| 20260509220458 | 18 | 276 | 6.4 | 25.7 | 0.00 | 0.00 | 0.00 | 42 | 1002.2 |
| 20260509215959 | 18 | 313 | 6.4 | 25.7 | 0.00 | 0.00 | 0.00 | 41 | 1002.1 |
| 20260509215458 | 18 | 306 | 9.7 | 22.5 | 0.00 | 0.00 | 0.00 | 41 | 1002.1 |
| 20260509214959 | 19 | 314 | 6.4 | 17.7 | 0.00 | 0.00 | 0.00 | 41 | 1002.0 |
| 20260509214459 | 18 | 283 | 6.4 | 16.1 | 0.00 | 0.00 | 0.00 | 43 | 1001.9 |
| 20260509213959 | 19 | 328 | 6.4 | 17.7 | 0.00 | 0.00 | 0.00 | 41 | 1001.9 |
| 20260509213458 | 19 | 214 | 8.0 | 17.7 | 0.00 | 0.00 | 0.00 | 43 | 1001.7 |
| 20260509212959 | 19 | 271 | 6.4 | 19.3 | 0.00 | 0.00 | 0.00 | 42 | 1001.7 |
| 20260509212458 | 19 | 261 | 8.0 | 19.3 | 0.00 | 0.00 | 0.00 | 41 | 1001.8 |
| 20260509211959 | 19 | 295 | 3.2 | 19.3 | 0.00 | 0.00 | 0.00 | 42 | 1001.7 |
| 20260509211500 | 19 | 353 | 4.8 | 24.1 | 0.00 | 0.00 | 0.00 | 43 | 1001.7 |
| 20260509210959 | 19 | 201 | 6.4 | 19.3 | 0.00 | 0.00 | 0.00 | 43 | 1001.6 |
| 20260509210459 | 19 | 276 | 6.4 | 19.3 | 0.00 | 0.00 | 0.00 | 42 | 1001.7 |
| 20260509205958 | 19 | 350 | 8.0 | 19.3 | 0.00 | 0.00 | 0.00 | 41 | 1001.7 |
| 20260509205458 | 19 | 266 | 4.8 | 24.1 | 0.00 | 0.00 | 0.00 | 42 | 1001.6 |
| 20260509204959 | 18 | 247 | 9.7 | 24.1 | 0.00 | 0.00 | 0.00 | 41 | 1001.6 |
| 20260509204459 | 19 | 309 | 8.0 | 17.7 | 0.00 | 0.00 | 0.00 | 43 | 1001.7 |
| 20260509203959 | 19 | 242 | 6.4 | 22.5 | 0.00 | 0.00 | 0.00 | 42 | 1001.8 |
| 20260509203459 | 18 | 228 | 9.7 | 22.5 | 0.00 | 0.00 | 0.00 | 42 | 1001.7 |
| 20260509202959 | 18 | 240 | 6.4 | 24.1 | 0.00 | 0.00 | 0.00 | 43 | 1001.8 |
| 20260509202458 | 19 | 250 | 9.7 | 20.9 | 0.00 | 0.00 | 0.00 | 43 | 1001.8 |
| 20260509191959 | 17 | 284 | 9.7 | 20.9 | 0.00 | 0.00 | 0.00 | 48 | 1001.7 |
| 20260509191459 | 17 | 259 | 9.7 | 29.0 | 0.00 | 0.00 | 0.00 | 50 | 1001.7 |
| 20260509190959 | 17 | 271 | 8.0 | 25.7 | 0.00 | 0.00 | 0.00 | 51 | 1001.7 |
| 20260509190459 | 17 | 340 | 11.3 | 25.7 | 0.00 | 0.00 | 0.00 | 53 | 1001.7 |
| 20260509190000 | 17 | 288 | 12.9 | 22.5 | 0.00 | 0.00 | 0.00 | 53 | 1001.6 |
| 20260509185459 | 17 | 244 | 9.7 | 29.0 | 0.00 | 0.00 | 0.00 | 53 | 1001.6 |
| 20260509184958 | 17 | 188 | 9.7 | 24.1 | 0.00 | 0.00 | 0.00 | 55 | 1001.5 |
| 20260509184500 | 17 | 233 | 9.7 | 27.4 | 0.00 | 0.00 | 0.00 | 53 | 1001.6 |
| 20260509183958 | 17 | 266 | 11.3 | 27.4 | 0.00 | 0.00 | 0.00 | 53 | 1001.4 |
| 20260509183459 | 17 | 240 | 6.4 | 20.9 | 0.00 | 0.00 | 0.00 | 58 | 1001.2 |
| 20260509182958 | 17 | 226 | 9.7 | 27.4 | 0.00 | 0.00 | 0.00 | 54 | 1001.2 |
| 20260509182459 | 16 | 282 | 8.0 | 27.4 | 0.00 | 0.00 | 0.00 | 55 | 1001.1 |
| 20260509181959 | 16 | 198 | 12.9 | 37.0 | 0.00 | 0.00 | 0.00 | 53 | 1001.2 |
| 20260509181458 | 16 | 224 | 9.7 | 37.0 | 0.00 | 0.00 | 0.00 | 55 | 1001.4 |
| 20260509180959 | 16 | 239 | 6.4 | 19.3 | 0.00 | 0.00 | 0.00 | 57 | 1001.4 |
| 20260509180459 | 16 | 244 | 9.7 | 25.7 | 0.00 | 0.00 | 0.00 | 54 | 1001.3 |
| 20260509175957 | 16 | 227 | 6.4 | 20.9 | 0.00 | 0.00 | 0.00 | 58 | 1001.2 |
| 20260509175458 | 15 | 236 | 4.8 | 19.3 | 0.00 | 0.00 | 0.00 | 59 | 1001.2 |
| 20260509174957 | 15 | 213 | 6.4 | 19.3 | 0.00 | 0.00 | 0.00 | 59 | 1001.2 |
| 20260509170957 | 13 | 248 | 4.8 | 14.5 | 0.00 | 0.00 | 0.00 | 71 | 1002.4 |
| 20260509170457 | 13 | 225 | 3.2 | 12.9 | 0.00 | 0.00 | 0.00 | 70 | 1002.5 |
| 20260509170001 | 13 | 244 | 4.8 | 12.9 | 0.00 | 0.00 | 0.00 | 69 | 1002.7 |
| 20260509165459 | 13 | 321 | 1.6 | 9.7 | 0.00 | 0.00 | 0.00 | 68 | 1002.6 |
| 20260509164959 | 13 | 295 | 3.2 | 9.7 | 0.00 | 0.00 | 0.00 | 66 | 1002.6 |
| 20260509164458 | 13 | 251 | 4.8 | 17.7 | 0.00 | 0.00 | 0.00 | 66 | 1002.6 |
| 20260509163959 | 13 | 289 | 6.4 | 17.7 | 0.00 | 0.00 | 0.00 | 66 | 1002.6 |
| 20260509163459 | 13 | 354 | 8.0 | 17.7 | 0.00 | 0.00 | 0.00 | 66 | 1002.6 |
| 20260509162958 | 13 | 297 | 8.0 | 16.1 | 0.00 | 0.00 | 0.00 | 65 | 1002.6 |
| 20260509162459 | 14 | 298 | 3.2 | 20.9 | 0.00 | 0.00 | 0.00 | 68 | 1002.6 |
| 20260509161958 | 13 | 311 | 6.4 | 20.9 | 0.00 | 0.00 | 0.00 | 67 | 1002.6 |
| 20260509161458 | 14 | 356 | 8.0 | 20.9 | 0.00 | 0.00 | 0.00 | 67 | 1002.5 |
| 20260509160958 | 14 | 305 | 8.0 | 19.3 | 0.00 | 0.00 | 0.00 | 66 | 1002.4 |
| 20260509160459 | 14 | 311 | 8.0 | 19.3 | 0.00 | 0.00 | 0.00 | 67 | 1002.1 |
| 20260509160000 | 15 | 240 | 8.0 | 19.3 | 0.00 | 0.00 | 0.00 | 68 | 1001.9 |
| 20260509155458 | 15 | 325 | 4.8 | 19.3 | 0.00 | 0.00 | 0.00 | 68 | 1001.9 |
| 20260509154958 | 15 | 251 | 8.0 | 24.1 | 0.00 | 0.00 | 0.00 | 66 | 1001.8 |
| 20260509154458 | 15 | 331 | 9.7 | 24.1 | 0.00 | 0.00 | 0.00 | 67 | 1001.7 |
| 20260509153959 | 16 | 242 | 9.7 | 25.7 | 0.00 | 0.00 | 0.00 | 67 | 1001.6 |
| 20260509153458 | 16 | 37 | 8.0 | 25.7 | 0.00 | 0.00 | 0.00 | 66 | 1001.3 |
| 20260509152959 | 17 | 309 | 9.7 | 22.5 | 0.00 | 0.00 | 0.00 | 64 | 1001.1 |
| 20260509152459 | 17 | 224 | 9.7 | 22.5 | 0.00 | 0.00 | 0.00 | 63 | 1000.7 |
| 20260509151958 | 18 | 283 | 8.0 | 19.3 | 0.00 | 0.00 | 0.00 | 63 | 1000.6 |
| 20260509151459 | 17 | 257 | 6.4 | 30.6 | 0.00 | 0.00 | 0.00 | 66 | 1000.5 |
| 20260509150959 | 17 | 307 | 9.7 | 30.6 | 0.00 | 0.00 | 0.00 | 66 | 1000.5 |
| 20260509150459 | 17 | 271 | 9.7 | 24.1 | 0.00 | 0.00 | 0.00 | 64 | 1000.2 |
| 20260509145959 | 17 | 221 | 6.4 | 24.1 | 0.00 | 0.00 | 0.00 | 67 | 1000.1 |
| 20260509145459 | 16 | 190 | 6.4 | 24.1 | 0.00 | 0.00 | 0.00 | 66 | 1000.3 |
| 20260509144959 | 17 | 305 | 8.0 | 16.1 | 0.00 | 0.00 | 0.00 | 65 | 1000.1 |
| 20260509144458 | 16 | 321 | 8.0 | 17.7 | 0.00 | 0.00 | 0.00 | 65 | 1000.1 |
| 20260509143958 | 17 | 301 | 6.4 | 17.7 | 0.00 | 0.00 | 0.00 | 65 | 1000.3 |
| 20260509143459 | 17 | 259 | 6.4 | 27.4 | 0.00 | 0.00 | 0.00 | 68 | 1000.2 |
| 20260509142958 | 17 | 218 | 6.4 | 27.4 | 0.00 | 0.00 | 0.00 | 66 | 1000.0 |
| 20260509142459 | 17 | 241 | 11.3 | 25.7 | 0.00 | 0.00 | 0.00 | 66 | 1000.0 |
| 20260509141958 | 17 | 217 | 12.9 | 25.7 | 0.00 | 0.00 | 0.00 | 68 | 1000.0 |
| 20260509141459 | 17 | 199 | 12.9 | 29.0 | 0.00 | 0.00 | 0.00 | 67 | 1000.1 |
| 20260509140959 | 17 | 249 | 11.3 | 29.0 | 0.00 | 0.00 | 0.00 | 69 | 1000.1 |
| 20260509140459 | 16 | 266 | 11.3 | 27.4 | 0.00 | 0.00 | 0.00 | 69 | 1000.0 |
| 20260509135959 | 16 | 288 | 11.3 | 33.8 | 0.00 | 0.00 | 0.00 | 69 | 999.9 |
| 20260509135500 | 16 | 227 | 12.9 | 33.8 | 0.00 | 0.00 | 0.00 | 70 | 1000.0 |
| 20260509135001 | 16 | 262 | 14.5 | 32.2 | 0.00 | 0.00 | 0.00 | 69 | 999.9 |
| 20260509134459 | 16 | 220 | 11.3 | 19.3 | 0.00 | 0.00 | 0.00 | 69 | 1000.1 |
| 20260509133959 | 16 | 314 | 6.4 | 25.7 | 0.00 | 0.00 | 0.00 | 71 | 1000.1 |
| 20260509133459 | 16 | 188 | 14.5 | 27.4 | 0.00 | 0.00 | 0.00 | 70 | 1000.0 |
| 20260509132959 | 16 | 211 | 12.9 | 27.4 | 0.00 | 0.00 | 0.00 | 70 | 1000.3 |
| 20260509132500 | 16 | 246 | 11.3 | 27.4 | 0.00 | 0.00 | 0.00 | 70 | 1000.0 |
| 20260509131959 | 15 | 213 | 11.3 | 19.3 | 0.00 | 0.00 | 0.00 | 70 | 1000.1 |
| 20260509131459 | 15 | 249 | 8.0 | 17.7 | 0.00 | 0.00 | 0.00 | 72 | 1000.2 |
| 20260509130958 | 15 | 201 | 8.0 | 16.1 | 0.00 | 0.00 | 0.00 | 72 | 1000.1 |
| 20260509130459 | 15 | 271 | 4.8 | 14.5 | 0.00 | 0.00 | 0.00 | 73 | 1000.2 |
| 20260509130000 | 14 | 266 | 4.8 | 17.7 | 0.00 | 0.00 | 0.00 | 75 | 1000.3 |
| 20260509125459 | 13 | 237 | 6.4 | 19.3 | 0.00 | 0.00 | 0.00 | 75 | 1000.2 |
| 20260509124959 | 13 | 223 | 8.0 | 19.3 | 0.00 | 0.00 | 0.00 | 76 | 1000.2 |
| 20260509124459 | 13 | 206 | 6.4 | 16.1 | 0.00 | 0.00 | 0.00 | 78 | 1000.4 |
| 20260509123959 | 13 | 222 | 8.0 | 16.1 | 0.00 | 0.00 | 0.00 | 80 | 1000.5 |
| 20260509123459 | 12 | 244 | 8.0 | 17.7 | 0.00 | 0.00 | 0.00 | 81 | 1000.6 |
| 20260509122958 | 12 | 212 | 8.0 | 17.7 | 0.00 | 0.00 | 0.00 | 82 | 1000.8 |
| 20260509122459 | 12 | 174 | 6.4 | 17.7 | 0.00 | 0.00 | 0.00 | 83 | 1000.8 |
| 20260509121959 | 12 | 232 | 6.4 | 17.7 | 0.00 | 0.00 | 0.00 | 83 | 1000.8 |
| 20260509121459 | 12 | 227 | 6.4 | 16.1 | 0.00 | 0.00 | 0.00 | 83 | 1000.9 |
| 20260509121000 | 11 | 238 | 6.4 | 14.5 | 0.00 | 0.00 | 0.00 | 83 | 1000.8 |
| 20260509120459 | 11 | 229 | 4.8 | 14.5 | 0.00 | 0.00 | 0.00 | 84 | 1000.5 |
| 20260509115958 | 11 | 242 | 6.4 | 14.5 | 0.00 | 0.00 | 0.00 | 84 | 1000.5 |
| 20260509115459 | 11 | 292 | 6.4 | 14.5 | 0.00 | 0.00 | 0.00 | 84 | 1000.5 |
| 20260509114958 | 11 | 190 | 4.8 | 9.7 | 0.00 | 0.00 | 0.00 | 84 | 1000.5 |
| 20260509114459 | 11 | 207 | 4.8 | 12.9 | 0.00 | 0.00 | 0.00 | 84 | 1000.5 |
| 20260509113958 | 11 | 221 | 4.8 | 14.5 | 0.00 | 0.00 | 0.00 | 85 | 1000.7 |
| 20260509113459 | 11 | 205 | 6.4 | 12.9 | 0.00 | 0.00 | 0.00 | 85 | 1000.7 |
| 20260509112959 | 11 | 209 | 4.8 | 12.9 | 0.00 | 0.00 | 0.00 | 85 | 1000.8 |
| 20260509112459 | 11 | 164 | 4.8 | 12.9 | 0.00 | 0.00 | 0.00 | 85 | 1000.7 |
| 20260509111959 | 11 | 208 | 4.8 | 12.9 | 0.00 | 0.00 | 0.00 | 85 | 1000.7 |
| 20260509111459 | 11 | 235 | 3.2 | 14.5 | 0.00 | 0.00 | 0.00 | 85 | 1000.8 |
| 20260509110958 | 11 | 227 | 4.8 | 16.1 | 0.00 | 0.00 | 0.00 | 85 | 1000.8 |
| 20260509110459 | 11 | 229 | 8.0 | 16.1 | 0.00 | 0.00 | 0.00 | 85 | 1000.8 |
| 20260509110002 | 11 | 235 | 4.8 | 14.5 | 0.00 | 0.00 | 0.00 | 85 | 1000.7 |
| 20260509105459 | 11 | 218 | 8.0 | 14.5 | 0.00 | 0.00 | 0.00 | 85 | 1000.7 |
| 20260509104958 | 11 | 171 | 4.8 | 12.9 | 0.00 | 0.00 | 0.00 | 85 | 1000.6 |
| 20260509104458 | 11 | 172 | 4.8 | 12.9 | 0.00 | 0.00 | 0.00 | 85 | 1000.8 |
| 20260509103959 | 10 | 266 | 4.8 | 12.9 | 0.00 | 0.00 | 0.00 | 85 | 1000.8 |
| 20260509103459 | 10 | 258 | 3.2 | 16.1 | 0.00 | 0.00 | 0.00 | 85 | 1000.9 |
| 20260509102959 | 10 | 249 | 3.2 | 14.5 | 0.00 | 0.00 | 0.00 | 85 | 1001.0 |
| 20260509102459 | 10 | 251 | 6.4 | 14.5 | 0.00 | 0.00 | 0.00 | 85 | 1001.1 |
| 20260509101959 | 10 | 216 | 4.8 | 9.7 | 0.00 | 0.00 | 0.00 | 85 | 1001.2 |
| 20260509101459 | 10 | 207 | 4.8 | 11.3 | 0.00 | 0.00 | 0.00 | 85 | 1001.2 |
| 20260509100959 | 10 | 168 | 4.8 | 14.5 | 0.00 | 0.00 | 0.00 | 84 | 1001.1 |
| 20260509100500 | 10 | 234 | 4.8 | 9.7 | 0.00 | 0.00 | 0.00 | 84 | 1001.2 |
| 20260509100000 | 10 | 216 | 3.2 | 9.7 | 0.00 | 0.00 | 0.00 | 84 | 1001.3 |
| 20260509095458 | 10 | 201 | 4.8 | 9.7 | 0.00 | 0.00 | 0.00 | 84 | 1001.3 |
| 20260509094959 | 10 | 200 | 6.4 | 9.7 | 0.00 | 0.00 | 0.00 | 83 | 1001.4 |
| 20260509094458 | 10 | 266 | 6.4 | 9.7 | 0.00 | 0.00 | 0.00 | 83 | 1001.4 |
| 20260509083500 | 10 | 243 | 1.6 | 12.9 | 0.00 | 0.00 | 0.00 | 78 | 1001.9 |
| 20260509082958 | 10 | 192 | 3.2 | 11.3 | 0.00 | 0.00 | 0.00 | 78 | 1002.0 |
| 20260509082458 | 10 | 239 | 4.8 | 9.7 | 0.00 | 0.00 | 0.00 | 77 | 1002.1 |
| 20260509081958 | 10 | 159 | 4.8 | 11.3 | 0.00 | 0.00 | 0.00 | 76 | 1002.1 |
| 20260509081459 | 10 | 171 | 4.8 | 8.0 | 0.00 | 0.00 | 0.00 | 75 | 1002.1 |
| 20260509080958 | 10 | 207 | 3.2 | 11.3 | 0.00 | 0.00 | 0.00 | 74 | 1002.1 |
| 20260509073459 | 10 | 217 | 3.2 | 6.4 | 0.00 | 0.00 | 0.00 | 66 | 1002.6 |
| 20260509072959 | 10 | 220 | 4.8 | 11.3 | 0.00 | 0.00 | 0.00 | 65 | 1002.6 |
| 20260509072459 | 10 | 203 | 1.6 | 12.9 | 0.00 | 0.00 | 0.00 | 63 | 1002.6 |
| 20260509071959 | 10 | 241 | 4.8 | 12.9 | 0.00 | 0.00 | 0.00 | 62 | 1002.7 |
| 20260509071458 | 11 | 219 | 1.6 | 14.5 | 0.00 | 0.00 | 0.00 | 61 | 1002.8 |
| 20260509070958 | 11 | 276 | 6.4 | 14.5 | 0.00 | 0.00 | 0.00 | 61 | 1002.7 |
| 20260509070458 | 11 | 221 | 6.4 | 12.9 | 0.00 | 0.00 | 0.00 | 61 | 1002.7 |
| 20260509065958 | 11 | 209 | 1.6 | 12.9 | 0.00 | 0.00 | 0.00 | 60 | 1002.8 |
| 20260509065458 | 11 | 201 | 4.8 | 12.9 | 0.00 | 0.00 | 0.00 | 59 | 1002.7 |
| 20260509064958 | 11 | 209 | 4.8 | 12.9 | 0.00 | 0.00 | 0.00 | 58 | 1002.9 |
| 20260509064458 | 11 | 266 | 4.8 | 12.9 | 0.00 | 0.00 | 0.00 | 56 | 1002.9 |
| 20260509063958 | 11 | 244 | 1.6 | 11.3 | 0.00 | 0.00 | 0.00 | 53 | 1003.0 |
| 20260509063459 | 11 | 247 | 3.2 | 11.3 | 0.00 | 0.00 | 0.00 | 51 | 1003.1 |
| 20260509062959 | 10 | 253 | 4.8 | 9.7 | 0.00 | 0.00 | 0.00 | 48 | 1003.1 |
| 20260509062458 | 10 | 146 | 4.8 | 14.5 | 0.00 | 0.00 | 0.00 | 45 | 1003.1 |
| 20260509061959 | 10 | 103 | 4.8 | 14.5 | 0.00 | 0.00 | 0.00 | 43 | 1003.1 |
| 20260509061459 | 10 | 204 | 1.6 | 12.9 | 0.00 | 0.00 | 0.00 | 41 | 1003.1 |
| 20260509060958 | 10 | 176 | 4.8 | 12.9 | 0.00 | 0.00 | 0.00 | 40 | 1003.3 |
| 20260509060458 | 10 | 258 | 3.2 | 9.7 | 0.00 | 0.00 | 0.00 | 40 | 1003.4 |
| 20260509055958 | 10 | 181 | 1.6 | 9.7 | 0.00 | 0.00 | 0.00 | 40 | 1003.4 |
| 20260509055459 | 10 | 199 | 3.2 | 8.0 | 0.00 | 0.00 | 0.00 | 40 | 1003.5 |
| 20260509054958 | 10 | 190 | 3.2 | 9.7 | 0.00 | 0.00 | 0.00 | 40 | 1003.5 |
| 20260509054458 | 10 | 190 | 1.6 | 9.7 | 0.00 | 0.00 | 0.00 | 39 | 1003.5 |
| 20260509053958 | 10 | 240 | 3.2 | 6.4 | 0.00 | 0.00 | 0.00 | 39 | 1003.6 |
| 20260509053458 | 9 | 169 | 1.6 | 4.8 | 0.00 | 0.00 | 0.00 | 40 | 1003.6 |
| 20260509052959 | 9 | 155 | 1.6 | 4.8 | 0.00 | 0.00 | 0.00 | 40 | 1003.7 |
| 20260509052458 | 9 | 243 | 0.0 | 6.4 | 0.00 | 0.00 | 0.00 | 41 | 1003.7 |
| 20260509051959 | 9 | 203 | 1.6 | 6.4 | 0.00 | 0.00 | 0.00 | 41 | 1003.6 |
| 20260509051459 | 9 | 218 | 1.6 | 6.4 | 0.00 | 0.00 | 0.00 | 41 | 1003.8 |
| 20260509050958 | 8 | 285 | 1.6 | 8.0 | 0.00 | 0.00 | 0.00 | 42 | 1003.8 |
| 20260509050459 | 8 | 147 | 3.2 | 8.0 | 0.00 | 0.00 | 0.00 | 42 | 1003.8 |
| 20260509045958 | 8 | 222 | 1.6 | 6.4 | 0.00 | 0.00 | 0.00 | 43 | 1003.9 |
| 20260509045458 | 8 | 209 | 1.6 | 6.4 | 0.00 | 0.00 | 0.00 | 43 | 1003.9 |
| 20260509044958 | 7 | 223 | 1.6 | 4.8 | 0.00 | 0.00 | 0.00 | 44 | 1003.7 |
| 20260509044459 | 7 | 105 | 0.0 | 4.8 | 0.00 | 0.00 | 0.00 | 45 | 1003.8 |
| 20260509043958 | 7 | 145 | 0.0 | 3.2 | 0.00 | 0.00 | 0.00 | 45 | 1003.8 |
| 20260509043459 | 7 | 130 | 0.0 | 3.2 | 0.00 | 0.00 | 0.00 | 47 | 1003.8 |
| 20260509042958 | 6 | 99 | 0.0 | 6.4 | 0.00 | 0.00 | 0.00 | 48 | 1003.9 |
| 20260509042459 | 6 | 151 | 1.6 | 6.4 | 0.00 | 0.00 | 0.00 | 48 | 1003.8 |
| 20260509041958 | 6 | 224 | 1.6 | 4.8 | 0.00 | 0.00 | 0.00 | 50 | 1004.0 |
| 20260509041458 | 6 | 87 | 0.0 | 3.2 | 0.00 | 0.00 | 0.00 | 51 | 1004.0 |
| 20260509040958 | 6 | 193 | 1.6 | 3.2 | 0.00 | 0.00 | 0.00 | 55 | 1004.0 |
| 20260509040458 | 6 | 182 | 0.0 | 1.6 | 0.00 | 0.00 | 0.00 | 59 | 1004.1 |
| 20260509040004 | 6 | 182 | 0.0 | 1.6 | 0.00 | 0.00 | 0.00 | 59 | 1004.2 |
| 20260509035459 | 7 | 182 | 0.0 | 1.6 | 0.00 | 0.00 | 0.00 | 59 | 1004.2 |
| 20260509034959 | 7 | 182 | 0.0 | 1.6 | 0.00 | 0.00 | 0.00 | 59 | 1004.2 |
| 20260509034459 | 7 | 182 | 0.0 | 1.6 | 0.00 | 0.00 | 0.00 | 56 | 1004.5 |
| 20260509034000 | 7 | 176 | 0.0 | 1.6 | 0.00 | 0.00 | 0.00 | 55 | 1004.7 |
| 20260509033459 | 7 | 168 | 0.0 | 1.6 | 0.00 | 0.00 | 0.00 | 53 | 1004.6 |
| 20260509032959 | 7 | 168 | 0.0 | 1.6 | 0.00 | 0.00 | 0.00 | 52 | 1004.5 |
| 20260509032459 | 7 | 165 | 0.0 | 1.6 | 0.00 | 0.00 | 0.00 | 53 | 1004.5 |
| 20260509031959 | 7 | 241 | 0.0 | 1.6 | 0.00 | 0.00 | 0.00 | 53 | 1004.6 |
| 20260509031459 | 7 | 241 | 0.0 | 1.6 | 0.00 | 0.00 | 0.00 | 52 | 1004.7 |
| 20260509030958 | 7 | 246 | 0.0 | 3.2 | 0.00 | 0.00 | 0.00 | 52 | 1004.7 |
| 20260509030459 | 7 | 250 | 1.6 | 3.2 | 0.00 | 0.00 | 0.00 | 53 | 1005.0 |
| 20260509025959 | 7 | 246 | 0.0 | 3.2 | 0.00 | 0.00 | 0.00 | 54 | 1004.8 |
| 20260509025458 | 7 | 246 | 0.0 | 3.2 | 0.00 | 0.00 | 0.00 | 53 | 1004.9 |
| 20260509025000 | 7 | 246 | 0.0 | 1.6 | 0.00 | 0.00 | 0.00 | 56 | 1005.0 |
| 20260509024459 | 7 | 246 | 0.0 | 1.6 | 0.00 | 0.00 | 0.00 | 55 | 1005.1 |
| 20260509024000 | 8 | 246 | 0.0 | 1.6 | 0.00 | 0.00 | 0.00 | 55 | 1004.9 |
| 20260509023459 | 8 | 246 | 0.0 | 1.6 | 0.00 | 0.00 | 0.00 | 55 | 1005.1 |
| 20260509022959 | 8 | 246 | 0.0 | 1.6 | 0.00 | 0.00 | 0.00 | 54 | 1005.1 |
| 20260509022500 | 8 | 246 | 0.0 | 0.0 | 0.00 | 0.00 | 0.00 | 53 | 1005.0 |
| 20260509014959 | 10 | 246 | 0.0 | 1.6 | 0.00 | 0.00 | 0.00 | 43 | 1004.9 |
| 20260509014458 | 10 | 246 | 0.0 | 1.6 | 0.00 | 0.00 | 0.00 | 43 | 1004.9 |
| 20260509013959 | 11 | 246 | 0.0 | 1.6 | 0.00 | 0.00 | 0.00 | 43 | 1004.9 |
| 20260509013459 | 11 | 246 | 0.0 | 0.0 | 0.00 | 0.00 | 0.00 | 41 | 1004.9 |
| 20260509012959 | 11 | 246 | 0.0 | 0.0 | 0.00 | 0.00 | 0.00 | 41 | 1005.0 |
| 20260509012459 | 12 | 246 | 0.0 | 0.0 | 0.00 | 0.00 | 0.00 | 40 | 1004.9 |
| 20260509011958 | 12 | 246 | 0.0 | 0.0 | 0.00 | 0.00 | 0.00 | 40 | 1004.9 |
| 20260509011500 | 12 | 246 | 0.0 | 0.0 | 0.00 | 0.00 | 0.00 | 39 | 1005.0 |
| 20260509010959 | 13 | 246 | 0.0 | 0.0 | 0.00 | 0.00 | 0.00 | 38 | 1004.9 |
| 20260509010500 | 13 | 246 | 0.0 | 0.0 | 0.00 | 0.00 | 0.00 | 38 | 1004.9 |
| 20260509010001 | 13 | 246 | 0.0 | 0.0 | 0.00 | 0.00 | 0.00 | 37 | 1005.0 |
| 20260509005500 | 14 | 246 | 0.0 | 0.0 | 0.00 | 0.00 | 0.00 | 36 | 1005.0 |
| 20260509005001 | 14 | 246 | 0.0 | 0.0 | 0.00 | 0.00 | 0.00 | 36 | 1005.0 |
| 20260509004500 | 15 | 246 | 0.0 | 0.0 | 0.00 | 0.00 | 0.00 | 35 | 1005.0 |
| 20260509004000 | 15 | 246 | 0.0 | 1.6 | 0.00 | 0.00 | 0.00 | 35 | 1005.0 |
| 20260509003501 | 15 | 246 | 0.0 | 1.6 | 0.00 | 0.00 | 0.00 | 34 | 1004.9 |
| 20260509003000 | 15 | 246 | 0.0 | 0.0 | 0.00 | 0.00 | 0.00 | 33 | 1005.0 |
| 20260509002500 | 15 | 246 | 0.0 | 1.6 | 0.00 | 0.00 | 0.00 | 32 | 1005.0 |
| 20260509002000 | 15 | 246 | 0.0 | 3.2 | 0.00 | 0.00 | 0.00 | 32 | 1005.0 |
| 20260509001500 | 15 | 238 | 0.0 | 3.2 | 0.00 | 0.00 | 0.00 | 32 | 1005.1 |
| 20260509001000 | 15 | 253 | 0.0 | 6.4 | 0.00 | 0.00 | 0.00 | 33 | 1005.2 |
| 20260509000500 | 16 | 218 | 1.6 | 8.0 | 0.00 | 0.00 | 0.00 | 32 | 1005.2 |
| 20260508235959 | 16 | 225 | 1.6 | 8.0 | 0.00 | 0.00 | 0.00 | 32 | 1005.4 |
| 20260508235459 | 15 | 229 | 1.6 | 8.0 | 0.00 | 0.00 | 0.00 | 32 | 1005.4 |
| 20260508234958 | 16 | 276 | 1.6 | 8.0 | 0.00 | 0.00 | 0.00 | 32 | 1005.4 |
| 20260508234500 | 16 | 260 | 3.2 | 14.5 | 0.00 | 0.00 | 0.00 | 33 | 1005.4 |
| 20260508233958 | 16 | 328 | 4.8 | 14.5 | 0.00 | 0.00 | 0.00 | 32 | 1005.4 |
| 20260508233458 | 16 | 282 | 3.2 | 9.7 | 0.00 | 0.00 | 0.00 | 33 | 1005.4 |
| 20260508232959 | 16 | 243 | 3.2 | 8.0 | 0.00 | 0.00 | 0.00 | 34 | 1005.4 |